BTY017 LIEE-LIPQ

Flight info

Callsign BTY017
Flight time N/A
Altitude 38000
Route KOVAS DCT DEXUL DCT APSUX DCT GAVRA DCT EKTUK DCT LOBSI DCT CHI
Aircraft B38M/M-SDE1FGHILORVWXY/HB1

Departure

Time N/A
Airport Cagliari Elmas Airport (LIEE)

Arrival

Time 2026-04-19 07:59
Airport Trieste Airport (LIPQ)
Time Latitude Longitude Altitude Speed Heading
2026-04-19 07:18 42.91614 11.39983 38109 ft 449 kts 15°
2026-04-19 07:19 42.97506 11.42853 38111 ft 450 kts 15°
2026-04-19 07:19 43.03358 11.45710 38112 ft 450 kts 15°
2026-04-19 07:20 43.09244 11.48589 38109 ft 450 kts 15°
2026-04-19 07:20 43.15141 11.51480 38112 ft 450 kts 15°
2026-04-19 07:21 43.21030 11.54372 38110 ft 450 kts 15°
2026-04-19 07:21 43.26922 11.57272 38116 ft 450 kts 15°
2026-04-19 07:22 43.32804 11.60174 38111 ft 450 kts 15°
2026-04-19 07:22 43.38694 11.63085 38111 ft 450 kts 15°
2026-04-19 07:23 43.44586 11.66003 38131 ft 450 kts 15°
2026-04-19 07:23 43.50483 11.68930 38103 ft 450 kts 15°
2026-04-19 07:24 43.56382 11.71862 38113 ft 451 kts 15°
2026-04-19 07:24 43.62277 11.74799 38123 ft 451 kts 15°
2026-04-19 07:25 43.68183 11.77748 38101 ft 451 kts 15°
2026-04-19 07:25 43.74090 11.80702 38103 ft 451 kts 15°
2026-04-19 07:26 43.80052 11.83284 38117 ft 447 kts
2026-04-19 07:26 43.86090 11.85400 38074 ft 447 kts
2026-04-19 07:27 43.92127 11.87493 38083 ft 448 kts
2026-04-19 07:27 43.98131 11.89578 38078 ft 448 kts
2026-04-19 07:28 44.04189 11.91588 38080 ft 446 kts
2026-04-19 07:28 44.10267 11.93339 38078 ft 446 kts
2026-04-19 07:29 44.16345 11.95125 38077 ft 447 kts
2026-04-19 07:29 44.22412 11.96914 37788 ft 443 kts
2026-04-19 07:29 44.25438 11.97808 36961 ft 445 kts
2026-04-19 07:30 44.28466 11.98703 36302 ft 445 kts
2026-04-19 07:30 44.31483 11.99596 35867 ft 439 kts
2026-04-19 07:30 44.34443 12.00473 35474 ft 433 kts
2026-04-19 07:30 44.37374 12.01342 35015 ft 429 kts
2026-04-19 07:31 44.40289 12.02207 34490 ft 427 kts
2026-04-19 07:31 44.43181 12.03067 33951 ft 425 kts
2026-04-19 07:31 44.46062 12.03923 33390 ft 422 kts
2026-04-19 07:31 44.48922 12.04775 32892 ft 418 kts
2026-04-19 07:32 44.51749 12.05617 32435 ft 414 kts
2026-04-19 07:32 44.54557 12.06455 31982 ft 410 kts
2026-04-19 07:32 44.57333 12.07285 31526 ft 406 kts
2026-04-19 07:32 44.60084 12.08107 31057 ft 404 kts
2026-04-19 07:33 44.62823 12.08926 30610 ft 401 kts
2026-04-19 07:33 44.65539 12.09740 30172 ft 398 kts
2026-04-19 07:33 44.68241 12.10549 29664 ft 395 kts
2026-04-19 07:33 44.70917 12.11352 29217 ft 391 kts
2026-04-19 07:34 44.73562 12.12146 28800 ft 387 kts
2026-04-19 07:34 44.76186 12.12935 28394 ft 383 kts
2026-04-19 07:34 44.78776 12.13715 27972 ft 380 kts
2026-04-19 07:34 44.81315 12.14479 27583 ft 376 kts
2026-04-19 07:35 44.83865 12.15248 27184 ft 373 kts
2026-04-19 07:35 44.86393 12.16010 26787 ft 370 kts
2026-04-19 07:35 44.88901 12.16767 26407 ft 367 kts
2026-04-19 07:35 44.91352 12.17768 25976 ft 370 kts 20°
2026-04-19 07:36 44.93672 12.19331 25615 ft 368 kts 21°
2026-04-19 07:36 44.95986 12.20844 25249 ft 365 kts 21°
2026-04-19 07:36 44.98280 12.22345 24878 ft 363 kts 21°
2026-04-19 07:36 45.00567 12.23846 24506 ft 361 kts 21°
2026-04-19 07:37 45.02842 12.25339 24135 ft 359 kts 21°
2026-04-19 07:37 45.05096 12.26830 23768 ft 359 kts 23°
2026-04-19 07:37 45.07140 12.28893 23270 ft 366 kts 44°
2026-04-19 07:37 45.08613 12.31836 22888 ft 367 kts 57°
2026-04-19 07:38 45.09926 12.34901 22559 ft 363 kts 56°
2026-04-19 07:38 45.11230 12.37941 22199 ft 360 kts 56°
2026-04-19 07:38 45.12512 12.40965 21828 ft 357 kts 56°
2026-04-19 07:38 45.13781 12.43971 21465 ft 355 kts 56°
2026-04-19 07:39 45.15043 12.46970 21102 ft 352 kts 56°
2026-04-19 07:39 45.16291 12.49941 20744 ft 350 kts 56°
2026-04-19 07:39 45.17529 12.52894 20391 ft 348 kts 56°
2026-04-19 07:39 45.18762 12.55835 20040 ft 346 kts 56°
2026-04-19 07:40 45.19988 12.58765 19692 ft 344 kts 56°
2026-04-19 07:40 45.21204 12.61672 19341 ft 343 kts 57°
2026-04-19 07:40 45.22417 12.64576 18987 ft 341 kts 57°
2026-04-19 07:40 45.23622 12.67463 18641 ft 340 kts 57°
2026-04-19 07:41 45.24821 12.70341 18283 ft 338 kts 57°
2026-04-19 07:41 45.26016 12.73211 17908 ft 337 kts 57°
2026-04-19 07:41 45.27205 12.76068 17545 ft 334 kts 57°
2026-04-19 07:41 45.28385 12.78901 17183 ft 332 kts 57°
2026-04-19 07:42 45.29165 12.80771 16906 ft 332 kts 57°
2026-04-19 07:42 45.30388 12.83535 16529 ft 329 kts 48°
2026-04-19 07:42 45.32113 12.85571 16189 ft 319 kts 25°
2026-04-19 07:42 45.34182 12.86540 15905 ft 311 kts
2026-04-19 07:43 45.36298 12.87110 15589 ft 308 kts
2026-04-19 07:43 45.38401 12.87640 15275 ft 305 kts
2026-04-19 07:43 45.40487 12.88141 14960 ft 303 kts
2026-04-19 07:43 45.42562 12.88624 14650 ft 301 kts
2026-04-19 07:44 45.44622 12.89093 14357 ft 299 kts
2026-04-19 07:44 45.46670 12.89555 14033 ft 297 kts
2026-04-19 07:44 45.48706 12.90011 13699 ft 296 kts
2026-04-19 07:44 45.50731 12.90464 13359 ft 294 kts
2026-04-19 07:45 45.52747 12.90915 13042 ft 291 kts
2026-04-19 07:45 45.54738 12.91360 12735 ft 289 kts
2026-04-19 07:45 45.56716 12.91803 12434 ft 286 kts
2026-04-19 07:45 45.58672 12.92241 12135 ft 284 kts
2026-04-19 07:46 45.60612 12.92675 11833 ft 281 kts
2026-04-19 07:46 45.62535 12.93106 11477 ft 277 kts
2026-04-19 07:46 45.64417 12.93529 11176 ft 271 kts
2026-04-19 07:46 45.66245 12.94045 10919 ft 267 kts 18°
2026-04-19 07:47 45.67820 12.95393 10540 ft 264 kts 35°
2026-04-19 07:47 45.69253 12.96959 10059 ft 262 kts 34°
2026-04-19 07:47 45.70712 12.98565 9490 ft 261 kts 35°
2026-04-19 07:47 45.72142 13.00152 8956 ft 260 kts 35°
2026-04-19 07:48 45.73566 13.01744 8432 ft 259 kts 36°
2026-04-19 07:48 45.74962 13.03308 7925 ft 258 kts 36°
2026-04-19 07:48 45.76374 13.04895 7422 ft 257 kts 36°
2026-04-19 07:48 45.77769 13.06465 7033 ft 252 kts 36°
2026-04-19 07:49 45.79127 13.07994 6724 ft 244 kts 36°
2026-04-19 07:49 45.80442 13.09476 6455 ft 238 kts 36°
2026-04-19 07:49 45.81717 13.10929 6210 ft 230 kts 40°
2026-04-19 07:49 45.82578 13.12750 5945 ft 216 kts 72°
2026-04-19 07:50 45.82776 13.14811 5632 ft 204 kts 88°
2026-04-19 07:50 45.82820 13.16842 5338 ft 207 kts 89°
2026-04-19 07:50 45.82848 13.18941 5053 ft 213 kts 90°
2026-04-19 07:50 45.82860 13.21068 4722 ft 214 kts 91°
2026-04-19 07:51 45.82866 13.23201 4277 ft 213 kts 91°
2026-04-19 07:51 45.82866 13.25330 3836 ft 214 kts 91°
2026-04-19 07:51 45.82862 13.27477 3405 ft 216 kts 91°
2026-04-19 07:51 45.82881 13.29636 2909 ft 217 kts 83°
2026-04-19 07:52 45.83503 13.31542 2526 ft 210 kts 45°
2026-04-19 07:52 45.84724 13.32481 2304 ft 192 kts
2026-04-19 07:52 45.85998 13.32254 2203 ft 185 kts 333°
2026-04-19 07:52 45.86943 13.31088 2278 ft 178 kts 301°
2026-04-19 07:53 45.87342 13.29437 2416 ft 176 kts 276°
2026-04-19 07:53 45.87462 13.27693 2379 ft 176 kts 272°
2026-04-19 07:53 45.87456 13.25938 2277 ft 177 kts 266°
2026-04-19 07:53 45.87422 13.24166 2276 ft 181 kts 269°
2026-04-19 07:54 45.87404 13.22359 2203 ft 178 kts 269°
2026-04-19 07:54 45.87215 13.20659 2147 ft 171 kts 243°
2026-04-19 07:54 45.86415 13.19433 2198 ft 171 kts 211°
2026-04-19 07:54 45.85294 13.19043 2234 ft 166 kts 178°
2026-04-19 07:55 45.84207 13.19532 2219 ft 166 kts 149°
2026-04-19 07:55 45.83409 13.20723 2235 ft 168 kts 122°
2026-04-19 07:55 45.83060 13.22317 2268 ft 170 kts 98°
2026-04-19 07:55 45.82938 13.24012 2251 ft 171 kts 95°
2026-04-19 07:56 45.82902 13.25711 2253 ft 170 kts 91°
2026-04-19 07:56 45.82895 13.27412 2235 ft 170 kts 92°
2026-04-19 07:56 45.82881 13.29046 2110 ft 163 kts 91°
2026-04-19 07:56 45.82872 13.30646 1953 ft 159 kts 91°
2026-04-19 07:57 45.82863 13.32215 1775 ft 157 kts 91°
2026-04-19 07:57 45.82855 13.33771 1562 ft 154 kts 90°
2026-04-19 07:57 45.82847 13.35314 1359 ft 155 kts 90°
2026-04-19 07:57 45.82839 13.36862 1155 ft 155 kts 90°
2026-04-19 07:58 45.82830 13.38384 927 ft 154 kts 90°
2026-04-19 07:58 45.82808 13.39934 782 ft 151 kts 91°
2026-04-19 07:58 45.82808 13.41443 512 ft 154 kts 91°
2026-04-19 07:58 45.82792 13.42979 313 ft 152 kts 92°
2026-04-19 07:59 45.82799 13.44462 117 ft 150 kts 90°
2026-04-19 07:59 45.82790 13.45904 49 ft 129 kts 92°
2026-04-19 07:59 45.82783 13.46907 48 ft 74 kts 91°
2026-04-19 07:59 45.82782 13.47407 50 ft 32 kts 90°
2026-04-19 08:00 45.82762 13.47640 49 ft 22 kts 125°
2026-04-19 08:00 45.82683 13.47744 50 ft 4 kts 141°
2026-04-19 08:00 45.82651 13.47782 49 ft 8 kts 141°
2026-04-19 08:00 45.82602 13.47840 50 ft 11 kts 140°
2026-04-19 08:01 45.82518 13.47940 50 ft 21 kts 140°
2026-04-19 08:01 45.82396 13.48088 50 ft 20 kts 140°
2026-04-19 08:01 45.82296 13.48211 50 ft 14 kts 137°
2026-04-19 08:01 45.82261 13.48340 50 ft 16 kts 82°
2026-04-19 08:02 45.82264 13.48446 46 ft 9 kts 122°
2026-04-19 08:02 45.82211 13.48478 48 ft 10 kts 172°
2026-04-19 08:02 45.82201 13.48480 50 ft 0 kts 172°